Location: Demre
(36.2444°N, 29.9850°E)
Time: 12:15:45
(UTC+00:00)

ERS-1 Rocket - Pass Details

Date: 11 March 2026
Orbit: 747 x 751 km, 98.2° (Epoch: 11 April)

Event Time Altitude Azimuth Distance (km) Brightness Sun altitude
Exits shadow 18:25:27 41° 357° (N) 1,083 3.8 -29.0°
Drops below altitude 10° 18:28:39 10° 350° (N) 2,270 5.7 -29.6°
Sets 18:30:57 0° 350° (N) 3,198 6.6 -30.0°
